Location: Moscow
(38.3171°N, 79.0889°W)
Time: 01:49:05
(UTC+00:00)

Cosmos 2221 Rocket - Pass Details

Date: 07 November 2025
Orbit: 615 x 642 km, 82.5° (Epoch: 08 December)

Event Time Altitude Azimuth Distance (km) Brightness Sun altitude
Rises 23:04:44 0° 354° (N) 2,948 7.0 -11.1°
Reaches altitude 10° 23:07:00 10° 356° (N) 2,032 6.1 -11.5°
Maximum altitude 23:11:31 76° 83° (E) 657 3.5 -12.4°
Drops below altitude 10° 23:15:57 10° 168° (SSE) 2,000 6.2 -13.2°
Sets 23:18:10 0° 170° (S) 2,898 7.0 -13.7°
